When you browse on this site, cookies collect data to enhance your experience and personalize the content and advertising you see.
Visit our Privacy Policy to learn more. By continuing to use the site, you agree to this use of cookies and data.
  • en France
  • Liste des pays
  • À 7 jours
  • Température de l'eau
  • Carte météo
  • Widgets météo
  • user-avatar
    Se connecter

    Météo par heure à Tonton

    Ce jour, 22 Septembre, Dimanche

    Heure Température Précipitation Vent Pression Humidité
    00:00 +18°C° 0 mm 4 m/s 750 mmHg 94%
    01:00 +18°C° 0 mm 4 m/s 750 mmHg 94%
    02:00 +17°C° 0 mm 5 m/s 749 mmHg 93%
    03:00 +17°C° 0 mm 6 m/s 748 mmHg 92%
    04:00 +16°C° 0.7 mm 5 m/s 748 mmHg 94%
    05:00 +17°C° 0.7 mm 4 m/s 749 mmHg 95%
    06:00 +17°C° 0 mm 4 m/s 749 mmHg 98%
    07:00 +17°C° 1.6 mm 4 m/s 749 mmHg 96%
    08:00 +17°C° 1.6 mm 4 m/s 749 mmHg 94%
    09:00 +16°C° 1.6 mm 5 m/s 749 mmHg 92%
    10:00 +17°C° 0.1 mm 5 m/s 749 mmHg 88%
    11:00 +17°C° 0.1 mm 6 m/s 749 mmHg 84%
    12:00 +18°C° 0 mm 7 m/s 750 mmHg 81%
    13:00 +18°C° 0.3 mm 7 m/s 750 mmHg 80%
    14:00 +18°C° 0.3 mm 7 m/s 749 mmHg 80%
    15:00 +18°C° 0.3 mm 7 m/s 749 mmHg 79%
    16:00 +17°C° 0.3 mm 6 m/s 750 mmHg 83%
    17:00 +16°C° 0.3 mm 5 m/s 750 mmHg 87%
    18:00 +15°C° 0.3 mm 4 m/s 750 mmHg 90%
    19:00 +14°C° 0.1 mm 4 m/s 751 mmHg 92%
    20:00 +14°C° 0.1 mm 5 m/s 751 mmHg 93%
    21:00 +13°C° 0.1 mm 5 m/s 752 mmHg 94%
    22:00 +13°C° 0 mm 5 m/s 752 mmHg 94%
    23:00 +13°C° 0 mm 5 m/s 753 mmHg 94%

    Demain, 23 Septembre, Lundi

    Heure Température Précipitation Vent Pression Humidité
    00:00 +12°C° 0 mm 5 m/s 753 mmHg 93%
    01:00 +12°C° 0 mm 5 m/s 753 mmHg 93%
    02:00 +12°C° 0 mm 5 m/s 754 mmHg 93%
    03:00 +10°C° 0 mm 5 m/s 754 mmHg 93%
    04:00 +11°C° 0 mm 4 m/s 755 mmHg 93%
    05:00 +11°C° 0 mm 4 m/s 755 mmHg 94%
    06:00 +11°C° 0 mm 3 m/s 755 mmHg 94%
    07:00 +12°C° 0 mm 4 m/s 755 mmHg 90%
    08:00 +14°C° 0 mm 5 m/s 755 mmHg 85%
    09:00 +16°C° 0 mm 6 m/s 756 mmHg 81%
    10:00 +16°C° 0.1 mm 7 m/s 755 mmHg 79%
    11:00 +17°C° 0.1 mm 8 m/s 755 mmHg 78%
    12:00 +17°C° 0.1 mm 8 m/s 755 mmHg 76%
    13:00 +16°C° 1.1 mm 9 m/s 754 mmHg 82%
    14:00 +15°C° 1.1 mm 9 m/s 754 mmHg 88%
    15:00 +14°C° 1.1 mm 10 m/s 753 mmHg 94%
    16:00 +15°C° 0.8 mm 9 m/s 753 mmHg 94%
    17:00 +15°C° 0.8 mm 8 m/s 753 mmHg 95%
    18:00 +16°C° 0.8 mm 7 m/s 752 mmHg 96%
    19:00 +16°C° 0.1 mm 7 m/s 752 mmHg 96%
    20:00 +16°C° 0.1 mm 6 m/s 752 mmHg 96%
    21:00 +16°C° 0.1 mm 6 m/s 752 mmHg 96%
    22:00 +16°C° 0.1 mm 6 m/s 752 mmHg 96%
    23:00 +16°C° 0.1 mm 6 m/s 751 mmHg 96%

    Après-demain, 24 Septembre, Mardi

    Heure Température Précipitation Vent Pression Humidité
    00:00 +16°C° 0.1 mm 6 m/s 751 mmHg 97%
    01:00 +16°C° 0.8 mm 6 m/s 750 mmHg 97%
    02:00 +16°C° 0.8 mm 5 m/s 749 mmHg 97%
    03:00 +16°C° 0.8 mm 5 m/s 749 mmHg 97%
    04:00 +16°C° 8 mm 5 m/s 748 mmHg 97%
    05:00 +15°C° 8 mm 4 m/s 748 mmHg 96%
    06:00 +15°C° 8 mm 4 m/s 747 mmHg 96%
    07:00 +15°C° 1.2 mm 5 m/s 747 mmHg 93%
    08:00 +16°C° 1.2 mm 6 m/s 747 mmHg 90%
    09:00 +16°C° 1.2 mm 7 m/s 747 mmHg 88%
    10:00 +17°C° 0.3 mm 7 m/s 748 mmHg 84%
    11:00 +17°C° 0.3 mm 7 m/s 748 mmHg 81%
    12:00 +17°C° 0.3 mm 7 m/s 749 mmHg 77%
    13:00 +17°C° 0.3 mm 7 m/s 749 mmHg 78%
    14:00 +17°C° 0.3 mm 7 m/s 749 mmHg 79%
    15:00 +16°C° 0.3 mm 7 m/s 749 mmHg 80%
    16:00 +16°C° 0.2 mm 7 m/s 748 mmHg 83%
    17:00 +15°C° 0.2 mm 7 m/s 748 mmHg 87%
    18:00 +14°C° 0.2 mm 7 m/s 748 mmHg 91%
    19:00 +14°C° 0.4 mm 7 m/s 748 mmHg 92%
    20:00 +13°C° 0.4 mm 8 m/s 747 mmHg 92%
    21:00 +13°C° 0.4 mm 8 m/s 747 mmHg 93%
    22:00 +13°C° 1.9 mm 8 m/s 746 mmHg 93%
    23:00 +13°C° 1.9 mm 9 m/s 746 mmHg 93%

    25 Septembre, Mercredi

    Heure Température Précipitation Vent Pression Humidité
    00:00 +15°C° 1.9 mm 9 m/s 745 mmHg 93%
    01:00 +15°C° 0.5 mm 9 m/s 746 mmHg 92%
    02:00 +15°C° 0.5 mm 9 m/s 746 mmHg 92%
    03:00 +15°C° 0.5 mm 9 m/s 746 mmHg 91%
    04:00 +15°C° 0.3 mm 9 m/s 746 mmHg 92%
    05:00 +15°C° 0.3 mm 9 m/s 747 mmHg 92%
    06:00 +15°C° 0.3 mm 8 m/s 747 mmHg 92%
    07:00 +15°C° 0.1 mm 8 m/s 748 mmHg 91%
    08:00 +15°C° 0.1 mm 8 m/s 749 mmHg 89%
    09:00 +16°C° 0.1 mm 7 m/s 750 mmHg 88%
    10:00 +16°C° 0 mm 7 m/s 750 mmHg 85%
    11:00 +17°C° 0 mm 7 m/s 750 mmHg 81%
    12:00 +17°C° 0 mm 6 m/s 751 mmHg 78%
    13:00 +17°C° 0 mm 6 m/s 751 mmHg 80%
    14:00 +17°C° 0 mm 6 m/s 751 mmHg 81%
    15:00 +17°C° 0 mm 5 m/s 751 mmHg 83%
    16:00 +17°C° 0.1 mm 5 m/s 751 mmHg 86%
    17:00 +16°C° 0.1 mm 5 m/s 750 mmHg 89%
    18:00 +17°C° 0.1 mm 4 m/s 750 mmHg 92%
    19:00 +16°C° 0.2 mm 5 m/s 750 mmHg 93%
    20:00 +16°C° 0.2 mm 6 m/s 750 mmHg 94%
    21:00 +16°C° 0.2 mm 6 m/s 750 mmHg 94%
    22:00 +16°C° 0.1 mm 6 m/s 750 mmHg 93%
    23:00 +16°C° 0.1 mm 7 m/s 750 mmHg 92%

    26 Septembre, Jeudi

    Heure Température Précipitation Vent Pression Humidité
    00:00 +15°C° 0.1 mm 7 m/s 749 mmHg 92%
    01:00 +15°C° 0.7 mm 7 m/s 749 mmHg 93%
    02:00 +16°C° 0.7 mm 8 m/s 749 mmHg 93%
    03:00 +16°C° 0.7 mm 8 m/s 749 mmHg 94%
    04:00 +16°C° 1.8 mm 8 m/s 749 mmHg 94%
    05:00 +15°C° 1.8 mm 7 m/s 749 mmHg 93%
    06:00 +15°C° 1.8 mm 7 m/s 749 mmHg 92%
    07:00 +15°C° 0.1 mm 7 m/s 750 mmHg 89%
    08:00 +15°C° 0.1 mm 7 m/s 750 mmHg 85%
    09:00 +15°C° 0.1 mm 7 m/s 751 mmHg 82%
    10:00 +15°C° 0.1 mm 7 m/s 751 mmHg 80%
    11:00 +16°C° 0.1 mm 7 m/s 751 mmHg 77%
    12:00 +17°C° 0.1 mm 7 m/s 751 mmHg 75%
    13:00 +16°C° 0.3 mm 7 m/s 751 mmHg 77%
    14:00 +16°C° 0.3 mm 7 m/s 751 mmHg 79%
    15:00 +15°C° 0.3 mm 7 m/s 751 mmHg 81%
    16:00 +15°C° 0.1 mm 7 m/s 751 mmHg 82%
    17:00 +14°C° 0.1 mm 6 m/s 751 mmHg 83%
    18:00 +14°C° 0.1 mm 6 m/s 751 mmHg 85%
    19:00 +13°C° 0.1 mm 6 m/s 751 mmHg 85%
    20:00 +13°C° 0.1 mm 6 m/s 751 mmHg 86%
    21:00 +11°C° 0.1 mm 6 m/s 751 mmHg 87%
    22:00 +11°C° 0.1 mm 6 m/s 751 mmHg 86%
    23:00 +11°C° 0.1 mm 6 m/s 751 mmHg 86%

    27 Septembre, Vendredi

    Heure Température Précipitation Vent Pression Humidité
    00:00 +11°C° 0.1 mm 6 m/s 751 mmHg 85%
    01:00 +11°C° 0 mm 6 m/s 751 mmHg 86%
    02:00 +11°C° 0 mm 6 m/s 750 mmHg 87%
    03:00 +11°C° 0 mm 6 m/s 750 mmHg 88%
    04:00 +11°C° 0 mm 6 m/s 750 mmHg 87%
    05:00 +11°C° 0 mm 6 m/s 750 mmHg 86%
    06:00 +11°C° 0 mm 7 m/s 750 mmHg 85%
    07:00 +12°C° 0.1 mm 7 m/s 750 mmHg 83%
    08:00 +13°C° 0.1 mm 8 m/s 750 mmHg 80%
    09:00 +13°C° 0.1 mm 8 m/s 750 mmHg 78%
    10:00 +15°C° 0.2 mm 9 m/s 750 mmHg 77%
    11:00 +15°C° 0.2 mm 9 m/s 750 mmHg 75%
    12:00 +16°C° 0.2 mm 10 m/s 750 mmHg 74%
    13:00 +16°C° 0.4 mm 10 m/s 750 mmHg 76%
    14:00 +14°C° 0.4 mm 10 m/s 750 mmHg 78%
    15:00 +14°C° 0.4 mm 10 m/s 749 mmHg 80%
    16:00 +15°C° 0.3 mm 9 m/s 749 mmHg 83%
    17:00 +13°C° 0.3 mm 9 m/s 749 mmHg 85%
    18:00 +13°C° 0.3 mm 9 m/s 749 mmHg 87%
    19:00 +13°C° 0.3 mm 9 m/s 749 mmHg 88%
    20:00 +13°C° 0.3 mm 9 m/s 750 mmHg 88%
    21:00 +13°C° 0.3 mm 9 m/s 750 mmHg 89%
    22:00 +13°C° 0.3 mm 9 m/s 750 mmHg 89%
    23:00 +13°C° 0.3 mm 9 m/s 750 mmHg 89%
    Voir plus